Weather in Prusovo

Russia / Yaroslavl Oblast     57°34′34″N   40°09′13″E
temp.,
°C
wind,
m/s
gust,
m/s
humid.,
%
clouds,
%
prec.,
mm/h
press.,
hPa
HPBL,
m
9 may, sun
sun900:00+8ese51295100 3.2 1003483
03:00+9sse4996100 4.1 1002465
06:00+9w2598100 1.4 1003271
09:00+7wnw5896100 1.4 1005398
12:00+7nnw6992100 0.1 1008671
15:00+5nnw71393100 0.4 1011662
18:00+7n71279100 0.3 10141032
21:00+5nnw41080100 0.3 1017232
10 may, mon
mon1000:00+3nw4128499 0.0 1019269
03:00+2nnw412837 0.0 1022264
06:00+3nnw4118019 0.0 1025328
09:00+8n69560 0.0 10261016
12:00+11n56450 0.0 10271419
15:00+13n45430 0.0 10271460
18:00+13nne23552 0.0 1028468
21:00+7nne22632 0.0 102910
11 may, tue
tue1100:00+6e22665 0.0 102910
03:00+4ne22705 0.0 103012
06:00+6ene247420 0.0 1031108
09:00+12ene355912 0.0 1031470
12:00+16ene454997 0.0 1030915
15:00+17ene4547100 0.0 1029975
18:00+17ene2463100 0.0 1029146
21:00+11e337222 0.0 102927
12 may, wed
wed1200:00+10e33710 0.0 103032
03:00+9ese33770 0.0 102936
06:00+10ene36840 0.0 1030149
09:00+16e46700 0.0 1029392
12:00+20e686244 0.0 1027965
15:00+22ese79615 0.1 10251523
18:00+19ese61270100 0.9 1024362
21:00+16se4138395 1.5 1025378
13 may, thu
thu1300:00+14se4128240 0.0 1025322
03:00+12ese3488100 0.0 102562
06:00+14ese4108971 0.0 1024309
09:00+18ese61275100 0.0 1023713
12:00+21se8115915 0.0 10221489
15:00+20se6116461 0.1 1021756
18:00+17sse3981100 0.5 1020245
21:00+15sse41094100 1.6 1021345